(257921) = 2000 WA29

Discovered at Socorro on 2000-11-26 by LINEAR.

Orbit

Orbit type: Mars-crosser

Note: WebGL enabled browser required.

epoch2023-09-13.0
epoch JD2460200.5
perihelion date2021-07-17.87159
perihelion JD2459413.37159
argument of perihelion (°)228.12911
ascending node (°)234.44537
inclination (°)16.18663
eccentricity0.2276341
perihelion distance (AU)1.4474879
Tisserand w.r.t. Jupiter3.9
ΔV w.r.t. Earth (km/sec)8.5
semimajor axis (AU)1.8740961
mean anomaly (°)302.38599
mean daily motion (°/day)0.38416350
aphelion distance (AU)2.301
period (years)2.57
P-vector [x]-0.19369296
P-vector [y]0.96229919
P-vector [z]0.19095367
Q-vector [x]-0.95448807
Q-vector [y]-0.13984706
Q-vector [z]-0.26342994
absolute magnitude17.93
phase slope0.15
uncertainty0
referenceMPEC 2024-A165
observations used815
oppositions11
arc length (days)8449
first opposition used2000
last opposition used2024
residual rms (arc-secs)0.51
perturbers coarse indicatorM-v
perturbers precise indicator003Ek
first observation date used2000-11-26.0
last observation date used2024-01-14.0
computer nameMPCLINUX
JD of orbit computation2456760.844225
perihelion JD uncertainty (days)6.7348E-05
argument of perihelion uncertainty (°)3.2340E-05
ascending node uncertainty (°)2.0512E-05
inclination uncertainty (°)9.5947E-06
eccentricity uncertainty 5.4360E-08
perihelion distance uncertainty (AU)1.0088E-07
Minimum Orbit Intersection Distances (in AU)
for orbit epoch: 2460200.5, reference: E2024-AG5
Mercury1.15339
Venus0.75538
Earth0.5039
Mars0.0507
Jupiter2.97894
Saturn7.57806
Uranus16.729
Neptune28.0087

Observations

822 total observations over interval: 2000 11 26.43856 – 2024 01 14.181731
These data are available for download (format description).

Date (UT) J2000 RA J2000 Dec Magn Location Ref
2000 11 26.43856 06 23 22.31 +07 27 33.8 17.7   704 – Lincoln Laboratory ETS, New Mexico MPS 22857
2000 11 26.46217 06 23 21.87 +07 26 48.6 18.1   704 – Lincoln Laboratory ETS, New Mexico MPS 22857
2000 11 26.47981 06 23 21.58 +07 26 14.6 18.1   704 – Lincoln Laboratory ETS, New Mexico MPS 22857
2000 11 26.49508 06 23 21.24 +07 25 45.0 18.1   704 – Lincoln Laboratory ETS, New Mexico MPS 22857
2000 11 27.37914 06 23 08.92 +06 57 19.3 18.8 R 853 – Biosphere 2 Observatory MPS 22857
2000 11 27.38015 06 23 08.89 +06 57 17.7 18.8 R 853 – Biosphere 2 Observatory MPS 22857
2000 11 27.38091 06 23 08.89 +06 57 16.1 18.9 R 853 – Biosphere 2 Observatory MPS 22857
2000 11 27.38693 06 23 08.64 +06 57 04.1 18.2   704 – Lincoln Laboratory ETS, New Mexico MPS 22857
2000 11 27.40143 06 23 08.36 +06 56 36.2 18.2   704 – Lincoln Laboratory ETS, New Mexico MPS 22857
2000 11 27.41594 06 23 08.08 +06 56 07.5 18.5   704 – Lincoln Laboratory ETS, New Mexico MPS 22857
2000 11 27.93611 06 22 59.99 +06 39 17.7 17.5 R 046 – Klet Observatory, Ceske Budejovice MPS 22857
2000 11 27.93772 06 22 59.91 +06 39 15.0   046 – Klet Observatory, Ceske Budejovice MPS 22857
2000 11 27.93903 06 22 59.87 +06 39 13.3   046 – Klet Observatory, Ceske Budejovice MPS 22857
2000 11 27.94035 06 22 59.83 +06 39 09.7   046 – Klet Observatory, Ceske Budejovice MPS 22857
2000 11 28.39770 06 22 51.08 +06 24 27.8 17.1   704 – Lincoln Laboratory ETS, New Mexico MPS 22857
2000 11 28.41242 06 22 50.67 +06 24 00.2 16.4   704 – Lincoln Laboratory ETS, New Mexico MPS 22857
2000 11 28.42811 06 22 50.24 +06 23 28.9 16.4   704 – Lincoln Laboratory ETS, New Mexico MPS 22857
2000 12 23.29743 06 04 27.18 -05 48 28.0 18.4   704 – Lincoln Laboratory ETS, New Mexico MPS 23934
2000 12 23.31373 06 04 26.32 -05 48 49.9 17.9   704 – Lincoln Laboratory ETS, New Mexico MPS 23934
2000 12 23.32935 06 04 25.30 -05 49 11.4 17.3   704 – Lincoln Laboratory ETS, New Mexico MPS 23934
2000 12 23.34643 06 04 24.17 -05 49 35.2 17.6   704 – Lincoln Laboratory ETS, New Mexico MPS 23934
2000 12 23.36178 06 04 23.24 -05 49 57.0 18.0   704 – Lincoln Laboratory ETS, New Mexico MPS 23934
2004 05 15.25475 15 26 12.76 -18 55 01.6 19.5   704 – Lincoln Laboratory ETS, New Mexico MPS 107312
2004 05 15.26426 15 26 12.01 -18 54 54.2 19.6   704 – Lincoln Laboratory ETS, New Mexico MPS 107312
2004 05 15.28329 15 26 10.48 -18 54 37.2 20.1   704 – Lincoln Laboratory ETS, New Mexico MPS 107312
2004 05 15.29285 15 26 09.79 -18 54 29.3 19.8   704 – Lincoln Laboratory ETS, New Mexico MPS 107312
2004 05 16.35389 15 24 51.20 -18 39 06.4 19.8 R 926 – Tenagra II Observatory, Nogales MPS 107312
2004 05 16.35613 15 24 51.02 -18 39 05.6 19.9 R 926 – Tenagra II Observatory, Nogales MPS 107312
2004 05 17.39339 15 23 34.95 -18 24 07.0 20.4 R 926 – Tenagra II Observatory, Nogales MPS 107312
2004 05 17.39564 15 23 34.77 -18 24 04.9 20.5 R 926 – Tenagra II Observatory, Nogales MPS 107312
2004 05 17.39791 15 23 34.58 -18 24 02.2 20.6 R 926 – Tenagra II Observatory, Nogales MPS 107312
2004 05 21.25223 15 19 00.72 -17 29 05.5 20.2 V 691 – Steward Observatory, Kitt Peak-Spacewatch MPS 108058
2004 05 21.28105 15 18 58.62 -17 28 41.1 20.3 V 691 – Steward Observatory, Kitt Peak-Spacewatch MPS 108058
2004 05 21.33439 15 18 54.79 -17 27 55.6 20.6 V 691 – Steward Observatory, Kitt Peak-Spacewatch MPS 108058
2005 09 29.30754 02 07 59.08 +33 11 27.2 19.4 V 703 – Catalina Sky Survey MPS 142487
2005 09 29.31529 02 07 58.94 +33 11 25.0 19.1 V 703 – Catalina Sky Survey MPS 142487
2005 09 29.32306 02 07 58.72 +33 11 21.9 19.3 V 703 – Catalina Sky Survey MPS 142487
2005 09 29.33088 02 07 58.54 +33 11 20.6 19.2 V 703 – Catalina Sky Survey MPS 142487
2005 10 14.26035 01 59 49.48 +30 44 47.0 18.8   704 – Lincoln Laboratory ETS, New Mexico MPS 143434
2005 10 14.28284 01 59 48.35 +30 44 27.1 18.9   704 – Lincoln Laboratory ETS, New Mexico MPS 143434
2005 10 14.29407 01 59 47.76 +30 44 17.6 19.1   704 – Lincoln Laboratory ETS, New Mexico MPS 143434
2005 10 14.30531 01 59 47.23 +30 44 07.2 19.3   704 – Lincoln Laboratory ETS, New Mexico MPS 143434
2005 10 26.20025 01 49 22.04 +27 03 06.0 18.3 R 699 – Lowell Observatory-LONEOS MPS 145826
2005 10 26.22216 01 49 20.69 +27 02 37.3   699 – Lowell Observatory-LONEOS MPS 145826
2005 10 26.26600 01 49 18.09 +27 01 39.7   699 – Lowell Observatory-LONEOS MPS 145826
2005 10 27.27461 01 48 22.12 +26 38 53.7 19.0 R 699 – Lowell Observatory-LONEOS MPS 145826
2005 10 27.27827 01 48 21.94 +26 38 48.8   699 – Lowell Observatory-LONEOS MPS 145826
2005 10 27.28190 01 48 21.68 +26 38 44.9   699 – Lowell Observatory-LONEOS MPS 145826
2005 10 27.28556 01 48 21.56 +26 38 39.7   699 – Lowell Observatory-LONEOS MPS 145826
2005 10 27.28935 01 48 21.25 +26 38 33.9 18.6 R 699 – Lowell Observatory-LONEOS MPS 145826
2005 10 27.29300 01 48 21.06 +26 38 29.5   699 – Lowell Observatory-LONEOS MPS 145826
2005 10 27.29666 01 48 20.84 +26 38 24.5   699 – Lowell Observatory-LONEOS MPS 145826
2005 10 27.30032 01 48 20.59 +26 38 19.2   699 – Lowell Observatory-LONEOS MPS 145826
2005 10 29.29751 01 46 30.86 +25 51 41.5 18.6 V 703 – Catalina Sky Survey MPS 147222
2005 10 29.30287 01 46 30.50 +25 51 33.3 18.6 V 703 – Catalina Sky Survey MPS 147222
2005 10 29.30844 01 46 30.18 +25 51 25.8 18.6 V 703 – Catalina Sky Survey MPS 147222
2005 10 29.31392 01 46 29.85 +25 51 17.6 18.6 V 703 – Catalina Sky Survey MPS 147222
2005 11 03.32462 01 42 06.53 +23 46 24.1 19.1   704 – Lincoln Laboratory ETS, New Mexico MPS 147222
2005 11 03.33673 01 42 06.02 +23 46 04.2 19.9   704 – Lincoln Laboratory ETS, New Mexico MPS 147222
2005 11 03.34903 01 42 05.24 +23 45 46.0 19.7   704 – Lincoln Laboratory ETS, New Mexico MPS 147222
2005 11 03.36118 01 42 04.62 +23 45 26.6 19.5   704 – Lincoln Laboratory ETS, New Mexico MPS 147222
2005 11 03.37337 01 42 03.94 +23 45 07.6 19.3   704 – Lincoln Laboratory ETS, New Mexico MPS 147222
2005 11 07.25446 01 39 02.00 +22 02 43.6 18.7   704 – Lincoln Laboratory ETS, New Mexico MPS 149200
2005 11 07.26675 01 39 01.40 +22 02 23.9 19.4   704 – Lincoln Laboratory ETS, New Mexico MPS 149200
2005 11 07.27901 01 39 00.79 +22 02 04.2 19.0   704 – Lincoln Laboratory ETS, New Mexico MPS 149200
2005 11 07.29122 01 39 00.21 +22 01 44.0 19.2   704 – Lincoln Laboratory ETS, New Mexico MPS 149200
2005 11 07.30342 01 38 59.62 +22 01 24.1 19.4   704 – Lincoln Laboratory ETS, New Mexico MPS 149200
2005 11 29.14992 01 32 20.00 +12 36 15.6 19.7 V 703 – Catalina Sky Survey MPS 151829
2005 11 29.15635 01 32 19.96 +12 36 05.5 19.8 V 703 – Catalina Sky Survey MPS 151829
2005 11 29.16278 01 32 20.11 +12 35 55.6 19.8 V 703 – Catalina Sky Survey MPS 151829
2005 11 29.16921 01 32 20.11 +12 35 47.5 19.6 V 703 – Catalina Sky Survey MPS 151829
2005 12 01.19117 01 32 47.62 +11 51 12.0 19.2   704 – Lincoln Laboratory ETS, New Mexico MPS 153409
2005 12 01.20407 01 32 47.75 +11 50 55.9 19.6   704 – Lincoln Laboratory ETS, New Mexico MPS 153409
2005 12 01.21705 01 32 47.94 +11 50 38.4 19.6   704 – Lincoln Laboratory ETS, New Mexico MPS 153409
2005 12 01.22989 01 32 48.11 +11 50 22.6 19.4   704 – Lincoln Laboratory ETS, New Mexico MPS 153409
2005 12 01.24288 01 32 48.25 +11 50 05.4 19.0   704 – Lincoln Laboratory ETS, New Mexico MPS 153409
2005 12 04.13648 01 33 48.68 +10 49 53.2 19.1   704 – Lincoln Laboratory ETS, New Mexico MPS 153409
2005 12 04.14935 01 33 48.97 +10 49 39.2 19.9   704 – Lincoln Laboratory ETS, New Mexico MPS 153409
2005 12 04.16230 01 33 49.18 +10 49 22.1 19.6   704 – Lincoln Laboratory ETS, New Mexico MPS 153409
2005 12 04.17536 01 33 49.47 +10 49 06.6 19.6   704 – Lincoln Laboratory ETS, New Mexico MPS 153409
2005 12 04.18836 01 33 49.73 +10 48 51.5 19.2   704 – Lincoln Laboratory ETS, New Mexico MPS 153409
2009 04 30.26194 13 31 15.31 -21 56 25.8 19.0 V 703 – Catalina Sky Survey MPS 285630
2009 04 30.26988 13 31 14.80 -21 56 14.0 19.0 V 703 – Catalina Sky Survey MPS 285630
2009 04 30.27780 13 31 14.55 -21 56 06.5 18.3 V 703 – Catalina Sky Survey MPS 285630
2009 04 30.28575 13 31 13.90 -21 55 55.9 19.1 V 703 – Catalina Sky Survey MPS 285630
2010 09 27.287755 23 05 40.672 +24 03 13.69 19.55 i F51 – Pan-STARRS 1, Haleakala MPS 365371
